Gwinn, MI

8:13 PM EDT on April 27, 2017 (GMT -0400)
Sawyer International

Weather History for KSAW - July, 2013

Change the Weather History Date:

Saturday, July 27, 2013

  Actual Average (KESC) Record (KESC)
Temperature  
Mean Temperature 50 °F -  
Max Temperature 55 °F 74 °F 88 °F (1952)
Min Temperature 46 °F 58 °F 42 °F (1996)
Degree Days  
Heating Degree Days 14    
Moisture  
Dew Point 45 °F    
Average Humidity 85    
Maximum Humidity 94    
Minimum Humidity 41    
Precipitation  
Precipitation 0.00 in - - ()
Sea Level Pressure  
Sea Level Pressure 29.86 in    
Wind  
Wind Speed 5 mph (NNW)    
Max Wind Speed 13 mph    
Max Gust Speed 18 mph    
Visibility 10 miles    
Events Rain    
Averages and records for this station are not official NWS values.
T = Trace of Precipitation, MM = Missing Value Source: NWS Daily Summary

Daily Weather History Graph

Daily Weather History Graph

Search for Another Location

Airport or City:

Trip Planner

Search our weather history database for the weather conditions in past years. The results will help you decide how hot, cold, wet, or windy it might be!

Date:

Astronomy

Jul. 27, 2013 Rise Set
Actual Time 6:25 AM EDT 9:26 PM EDT
Civil Twilight 5:49 AM EDT 10:01 PM EDT
Nautical Twilight 5:03 AM EDT 10:47 PM EDT
Astronomical Twilight 4:08 AM EDT 11:41 PM EDT
Moon 11:47 PM EDT (7/27) 12:29 PM EDT (7/27)
Length of Visible Light 16h 11m
Length of Day
15h 00m
Waning Gibbous, 71% of the Moon is Illuminated
Jul 27
Waning Gibbous
Jul 29
Last Quarter
Aug 6
New
Aug 14
First Quarter
Aug 20
Full

Hourly Weather History & Observations

Time (EDT) Temp. Windchill Dew Point Humidity Pressure Visibility Wind Dir Wind Speed Gust Speed Precip Events Conditions
12:16 AM 48.0 °F - 45.5 °F 91% 29.91 in 10.0 mi NNW 9.2 mph - N/A   Overcast
12:36 AM 47.8 °F - 45.3 °F 91% 29.90 in 10.0 mi NNW 8.1 mph - N/A   Overcast
12:55 AM 47.8 °F - 45.5 °F 92% 29.91 in 10.0 mi NNW 6.9 mph - N/A   Overcast
1:16 AM 47.8 °F - 45.5 °F 92% 29.90 in 10.0 mi NNW 8.1 mph - N/A   Overcast
1:36 AM 47.8 °F - 45.1 °F 90% 29.90 in 10.0 mi NW 6.9 mph - N/A   Overcast
1:55 AM 47.8 °F - 45.0 °F 90% 29.90 in 10.0 mi NNW 6.9 mph - N/A   Overcast
2:16 AM 47.8 °F - 45.1 °F 90% 29.89 in 10.0 mi North 4.6 mph - N/A   Overcast
2:36 AM 47.8 °F - 45.1 °F 90% 29.89 in 10.0 mi Calm Calm - N/A   Overcast
2:56 AM 47.8 °F - 45.3 °F 91% 29.89 in 10.0 mi NW 3.5 mph - N/A   Overcast
3:16 AM 48.2 °F - 45.3 °F 90% 29.88 in 10.0 mi Calm Calm - N/A   Overcast
3:35 AM 48.2 °F - 45.0 °F 89% 29.88 in 10.0 mi NNW 5.8 mph - N/A   Overcast
3:56 AM 48.0 °F - 45.0 °F 89% 29.88 in 10.0 mi NNW 5.8 mph - N/A   Overcast
4:16 AM 47.7 °F - 44.8 °F 90% 29.88 in 10.0 mi Calm Calm - N/A   Overcast
4:35 AM 47.7 °F - 44.8 °F 90% 29.88 in 10.0 mi Calm Calm - N/A   Overcast
4:56 AM 47.7 °F - 45.0 °F 90% 29.87 in 10.0 mi Calm Calm - N/A   Overcast
5:15 AM 47.7 °F - 45.1 °F 91% 29.87 in 10.0 mi Calm Calm - N/A   Overcast
5:36 AM 47.3 °F - 45.1 °F 92% 29.87 in 10.0 mi Calm Calm - N/A   Overcast
5:56 AM 47.3 °F - 45.1 °F 92% 29.87 in 10.0 mi Calm Calm - N/A   Overcast
6:50 AM 46.4 °F 44.3 °F 44.6 °F 93% 29.87 in 10.0 mi West 4.6 mph - N/A   Overcast
7:35 AM 46.4 °F 42.9 °F 44.6 °F 93% 29.88 in 10.0 mi West 6.9 mph - N/A Rain Light Rain
7:50 AM 46.4 °F 42.9 °F 44.6 °F 93% 29.88 in 10.0 mi West 6.9 mph - N/A   Overcast
8:55 AM 48.2 °F - 44.6 °F 87% 29.86 in 10.0 mi West 5.8 mph - N/A   Overcast
9:55 AM 50.0 °F - 44.6 °F 82% 29.86 in 10.0 mi West 5.8 mph - N/A   Overcast
10:35 AM 50.0 °F - 44.6 °F 82% 29.85 in 10.0 mi SW 3.5 mph - N/A   Overcast
10:50 AM 51.8 °F - 44.6 °F 76% 29.86 in 10.0 mi SW 3.5 mph - N/A   Overcast
11:55 AM 53.6 °F - 44.6 °F 72% 29.85 in 10.0 mi Calm Calm - N/A   Overcast
12:55 PM 55.4 °F - 44.6 °F 67% 29.84 in 10.0 mi West 3.5 mph - N/A   Overcast
1:50 PM 55.4 °F - 44.6 °F 67% 29.83 in 10.0 mi Calm Calm - N/A   Overcast
2:50 PM 55.4 °F - 44.6 °F 67% 29.84 in 10.0 mi Calm Calm - N/A   Overcast
3:50 PM 55.4 °F - 32.0 °F 41% 29.83 in 10.0 mi East 11.5 mph - N/A   Overcast
5:50 PM 55.4 °F - 48.2 °F 77% 29.83 in 10.0 mi NNE 9.2 mph - N/A   Overcast
6:50 PM 53.6 °F - 46.4 °F 77% 29.83 in 10.0 mi NNE 12.7 mph 18.4 mph N/A   Overcast
7:50 PM 51.8 °F - 46.4 °F 82% 29.84 in 10.0 mi NNE 9.2 mph - N/A   Mostly Cloudy
8:50 PM 51.8 °F - 46.4 °F 82% 29.84 in 10.0 mi NE 6.9 mph - N/A   Scattered Clouds
9:45 PM 50.0 °F - 48.2 °F 94% 29.85 in 10.0 mi NNE 8.1 mph - N/A   Overcast
10:16 PM 50.2 °F - 46.8 °F 88% 29.85 in 10.0 mi NNE 6.9 mph - N/A   Overcast
10:36 PM 50.0 °F - 46.8 °F 89% 29.84 in 10.0 mi North 3.5 mph - N/A   Overcast
10:56 PM 50.0 °F - 46.4 °F 87% 29.84 in 10.0 mi North 4.6 mph - N/A   Overcast
11:15 PM 50.0 °F - 46.9 °F 89% 29.83 in 10.0 mi North 5.8 mph - N/A   Overcast
11:36 PM 50.0 °F - 47.3 °F 90% 29.82 in 10.0 mi North 4.6 mph - N/A   Overcast
11:56 PM 48.7 °F - 46.0 °F 90% 29.82 in 10.0 mi North 4.6 mph - N/A   Scattered Clouds